DW2893 Weather Reports


Display with metric or nautical units.
time (UTC)temp
F
wind
direction
speed
MPH
gust
MPH
rain 1hr
in
rain 24hr
in
rain mn
in
humidity
%
barometer
mb
20260508084306 60 218 2.0 3.0 0.18 0.18 0.18 90 1012.5
20260508083305 60 263 1.0 7.0 0.18 0.18 0.18 90 1012.5
20260508082806 60 157 6.0 12.0 0.18 0.18 0.18 90 1012.7
20260508082306 60 144 6.0 12.0 0.18 0.18 0.18 89 1012.7
20260508081806 60 133 6.0 9.0 0.17 0.17 0.17 88 1012.7
20260508080805 60 150 6.0 9.0 0.17 0.17 0.17 87 1013.3
20260508074305 62 139 1.0 2.0 0.00 0.00 0.00 80 1013.9
20260508073305 62 140 2.0 5.0 0.00 0.00 0.00 79 1013.3
20260508072806 62 139 2.0 3.0 0.00 0.00 0.00 79 1013.3
20260508071306 62 142 2.0 7.0 0.00 0.00 0.00 80 1013.4
20260508070305 62 142 0.0 1.0 0.00 0.00 0.00 79 1013.3
20260508065307 62 142 1.0 2.0 0.00 0.00 0.00 79 1013.5
20260508063805 62 143 0.0 0.0 0.00 0.00 0.00 78 1013.9
20260508063305 62 143 0.0 1.0 0.00 0.00 0.00 78 1014.1
20260508062805 62 142 0.0 2.0 0.00 0.00 0.00 78 1014.1
20260508062306 62 142 1.0 3.0 0.00 0.00 0.00 77 1013.9
20260508060805 63 143 1.0 3.0 0.00 0.00 0.00 76 1013.8
20260508053805 63 142 1.0 2.0 0.00 0.00 0.00 76 1013.7
20260508050933 63 142 1.0 2.0 0.00 0.00 0.00 74 1013.9
20260508044805 64 142 1.0 2.0 0.00 0.00 0.00 73 1013.9
20260508035306 64 142 1.0 3.0 0.00 0.00 0.00 72 1013.8
20260508034804 64 142 1.0 2.0 0.00 0.00 0.00 71 1013.8
20260508033804 64 142 2.0 5.0 0.00 0.00 0.00 71 1013.8
20260508033304 65 142 1.0 5.0 0.00 0.00 0.00 72 1013.5
20260508032306 65 143 2.0 5.0 0.00 0.00 0.00 70 1013.5
20260508030304 65 126 2.0 8.0 0.00 0.00 0.00 69 1013.4
20260508025804 65 153 1.0 6.0 0.00 0.00 0.00 68 1013.4
20260508025306 65 154 2.0 5.0 0.00 0.00 0.00 67 1013.5
20260508024804 66 156 2.0 5.0 0.00 0.00 0.00 67 1013.4
20260508020304 66 157 4.0 8.0 0.00 0.00 0.00 64 1012.9
20260508012808 67 156 7.0 10.0 0.00 0.00 0.00 64 1012.9
20260508011809 67 171 6.0 10.0 0.00 0.00 0.00 63 1013.0
20260508011308 67 163 6.0 12.0 0.00 0.00 0.00 63 1013.0
20260508010308 68 167 6.0 8.0 0.00 0.00 0.00 64 1013.0
20260508005808 68 152 6.0 10.0 0.00 0.00 0.00 63 1012.8
20260508005308 68 148 7.0 12.0 0.00 0.00 0.00 63 1012.8
20260508004308 69 150 5.0 9.0 0.00 0.00 0.00 63 1012.8
20260508003308 69 154 7.0 12.0 0.00 0.00 0.00 61 1012.8
20260508002308 70 139 7.0 13.0 0.00 0.00 0.00 60 1012.9
20260508000808 72 136 3.0 9.0 0.00 0.00 0.00 52 1012.9
20260507235808 72 127 5.0 8.0 0.00 0.00 0.00 52 1012.9
20260507235307 72 127 5.0 9.0 0.00 0.00 0.00 52 1012.8
20260507232807 72 142 4.0 8.0 0.00 0.00 0.00 52 1012.8
20260507232308 72 106 5.0 9.0 0.00 0.00 0.00 52 1012.8
20260507230807 73 116 5.0 9.0 0.00 0.00 0.00 52 1012.8
20260507230308 73 119 5.0 9.0 0.00 0.00 0.00 52 1012.8
20260507223807 74 65 1.0 3.0 0.00 0.00 0.00 47 1013.1
20260507222808 74 94 1.0 5.0 0.00 0.00 0.00 47 1013.1
20260507222308 74 94 2.0 5.0 0.00 0.00 0.00 47 1013.2
20260507221307 74 129 2.0 5.0 0.00 0.00 0.00 47 1013.5
20260507214808 75 84 3.0 6.0 0.00 0.00 0.00 46 1013.5
20260507214307 75 60 2.0 3.0 0.00 0.00 0.00 46 1013.5
20260507213307 75 29 3.0 5.0 0.00 0.00 0.00 47 1013.5
20260507212807 75 36 3.0 5.0 0.00 0.00 0.00 45 1013.5
20260507212308 76 16 2.0 5.0 0.00 0.00 0.00 46 1013.5
20260507211308 76 11 2.0 3.0 0.00 0.00 0.00 46 1013.5
20260507210807 75 10 3.0 7.0 0.00 0.00 0.00 47 1013.6
20260507205807 76 333 4.0 7.0 0.00 0.00 0.00 44 1013.6
20260507204807 76 93 2.0 7.0 0.00 0.00 0.00 43 1013.7
20260507204307 75 92 1.0 5.0 0.00 0.00 0.00 45 1013.9
20260507201307 76 340 3.0 12.0 0.00 0.00 0.00 43 1014.3
20260507200308 75 333 3.0 9.0 0.00 0.00 0.00 45 1014.3
20260507195807 75 36 4.0 6.0 0.00 0.00 0.00 46 1014.3
20260507195307 75 40 3.0 8.0 0.00 0.00 0.00 45 1014.4
20260507194807 75 353 4.0 10.0 0.00 0.00 0.00 43 1014.6
20260507194307 75 346 6.0 10.0 0.00 0.00 0.00 46 1014.8
20260507193307 74 2 3.0 8.0 0.00 0.00 0.00 45 1014.9
20260507191307 74 73 5.0 9.0 0.00 0.00 0.00 48 1015.1
20260507190807 73 348 5.0 10.0 0.00 0.00 0.00 46 1015.1
20260507190307 73 32 4.0 9.0 0.00 0.00 0.00 47 1015.1
20260507185307 74 10 4.0 12.0 0.00 0.00 0.00 46 1015.7
20260507182307 72 342 9.0 13.0 0.00 0.00 0.00 47 1015.7
20260507181807 71 328 5.0 12.0 0.00 0.00 0.00 48 1015.7
20260507175307 70 37 6.0 10.0 0.00 0.00 0.00 51 1016.6
20260507174307 69 39 6.0 12.0 0.00 0.00 0.00 51 1016.6
20260507173807 70 86 3.0 7.0 0.00 0.00 0.00 51 1016.6
20260507172308 69 36 5.0 10.0 0.00 0.00 0.00 52 1017.4
20260507171307 68 11 5.0 10.0 0.00 0.00 0.00 54 1017.4
20260507170307 68 40 1.0 3.0 0.00 0.00 0.00 54 1017.4
20260507163807 67 38 3.0 5.0 0.00 0.00 0.00 57 1017.7
20260507162806 68 36 2.0 6.0 0.00 0.00 0.00 56 1017.5
20260507162307 68 48 4.0 7.0 0.00 0.00 0.00 57 1017.6
20260507161806 67 82 3.0 7.0 0.00 0.00 0.00 57 1017.7
20260507160306 65 25 5.0 12.0 0.00 0.00 0.00 60 1017.6
20260507155807 66 56 3.0 6.0 0.00 0.00 0.00 60 1017.8
20260507154806 65 17 5.0 9.0 0.00 0.00 0.00 61 1017.7
20260507151306 63 74 2.0 8.0 0.00 0.23 0.00 65 1018.1
20260507150806 63 38 4.0 7.0 0.00 0.23 0.00 66 1018.1
20260507150306 62 3 4.0 8.0 0.00 0.23 0.00 66 1018.1
20260507145807 61 1 3.0 7.0 0.00 0.23 0.00 70 1018.1
20260507143807 60 19 3.0 6.0 0.00 0.23 0.00 75 1018.2
20260507142307 58 33 3.0 7.0 0.00 0.23 0.00 79 1018.2
20260507141806 58 8 3.0 5.0 0.00 0.23 0.00 80 1018.2
20260507140806 57 42 2.0 5.0 0.00 0.23 0.00 82 1018.4
20260507140307 57 46 2.0 6.0 0.00 0.23 0.00 84 1018.4
20260507135806 56 349 3.0 6.0 0.00 0.23 0.00 84 1018.6
20260507133307 55 351 4.0 6.0 0.00 0.23 0.00 88 1018.6
20260507132307 54 340 1.0 5.0 0.00 0.23 0.00 90 1018.6
20260507131306 54 337 1.0 3.0 0.00 0.23 0.00 90 1018.5
20260507130807 54 338 3.0 6.0 0.00 0.23 0.00 91 1018.5
20260507130306 54 338 2.0 6.0 0.00 0.23 0.00 91 1018.4
20260507125806 53 338 1.0 5.0 0.00 0.23 0.00 91 1018.3
20260507125307 53 333 3.0 6.0 0.00 0.23 0.00 91 1018.3
20260507121805 52 313 2.0 3.0 0.00 0.23 0.00 92 1017.7
20260507121306 52 310 1.0 5.0 0.00 0.23 0.00 92 1017.7
20260507120306 51 311 1.0 3.0 0.00 0.23 0.00 92 1017.7
20260507115806 51 311 1.0 3.0 0.00 0.23 0.00 92 1017.7
20260507115307 51 311 2.0 3.0 0.00 0.23 0.00 92 1017.7
20260507113805 51 311 1.0 3.0 0.00 0.23 0.00 92 1017.6
20260507113306 51 311 1.0 3.0 0.00 0.23 0.00 92 1017.5
20260507112806 51 311 1.0 2.0 0.00 0.23 0.00 92 1017.5
20260507111806 51 311 2.0 3.0 0.00 0.23 0.00 92 1017.2
20260507111305 51 311 2.0 5.0 0.00 0.23 0.00 92 1017.2
20260507110806 51 309 2.0 6.0 0.00 0.23 0.00 92 1017.2
20260507110306 51 336 2.0 3.0 0.00 0.23 0.00 92 1017.2
20260507105806 51 19 1.0 3.0 0.00 0.23 0.00 92 1017.1
20260507105307 51 19 1.0 3.0 0.00 0.23 0.00 92 1017.1
20260507104806 51 19 2.0 3.0 0.00 0.23 0.00 92 1017.1
20260507104306 51 19 1.0 3.0 0.00 0.23 0.00 91 1016.7
20260507102806 51 39 0.0 2.0 0.00 0.23 0.00 91 1016.7
20260507102307 51 39 1.0 1.0 0.00 0.23 0.00 91 1016.6
20260507100805 52 39 0.0 1.0 0.00 0.23 0.00 90 1016.3
20260507100306 52 39 1.0 2.0 0.00 0.23 0.00 90 1016.1
20260507095306 52 39 1.0 1.0 0.00 0.23 0.00 90 1016.1
20260507094305 52 40 1.0 3.0 0.00 0.23 0.00 90 1016.0
20260507092307 53 40 1.0 2.0 0.00 0.23 0.00 89 1015.9
20260507090306 53 39 0.0 1.0 0.00 0.23 0.00 89 1016.0
20260507085805 53 39 1.0 3.0 0.00 0.23 0.00 88 1016.0